Location: Stilling
(56.0622°N, 9.9882°E)
Time: 13:18:31
(UTC+00:00)

Cosmos 2184 Rocket - Pass Details

Date: 13 July 2020
Orbit: 960 x 1001 km, 82.9° (Epoch: 07 August)

Event Time Altitude Azimuth Distance (km) Brightness Sun altitude
Rises 20:45:03 0° 185° (S) 3,673 6.6 -5.2°
Reaches altitude 10° 20:47:32 10° 185° (S) 2,735 5.9 -5.4°
Maximum altitude 20:53:49 82° 98° (E) 1,007 4.1 -5.9°
Drops below altitude 10° 21:00:13 10° 13° (NNE) 2,779 7.1 -6.4°
Sets 21:02:46 0° 13° (NNE) 3,735 7.8 -6.6°
